Location: American Medical Response
(33.3472°N, 96.5511°W)
Time: 11:27:03
(UTC+00:00)

Cosmos 1805 Rocket - Pass Details

Date: 05 July 2022
Orbit: 605 x 629 km, 82.5° (Epoch: 10 August)

Event Time Altitude Azimuth Distance (km) Brightness Sun altitude
Exits shadow 09:18:13 34° 159° (SSE) 1,023 4.4 -21.2°
Maximum altitude 09:19:56 60° 94° (E) 713 3.9 -20.9°
Drops below altitude 10° 09:24:16 10° 15° (NNE) 1,988 7.0 -20.3°
Sets 09:26:30 0° 11° (NNE) 2,893 8.0 -20.0°
